Regional Weather Roundup
Issued by NWS

Home | Current Version | Previous Version | Text Only | Print | Product List | Glossary Off
Versions: 1 2 3 4 5 6 7 8 9 10 11 12 13 14 15 16 17 18 19 20 21 22 23 24 25 26 27 28 29 30 31 32 33 34 35 36 37 38 39 40 41 42 43 44 45 46 47 48 49 50

000
ASUS45 KCYS 231110
RWRWY

WYOMING REGIONAL WEATHER ROUNDUP
NATIONAL WEATHER SERVICE CHEYENNE WY
500 AM MDT SAT SEP 23 2017

NOTE:  "FAIR" INDICATES FEW OR NO CLOUDS BELOW 12,000 FEET
WITH NO SIGNIFICANT WEATHER AND/OR OBSTRUCTIONS TO VISIBILITY.

WYZ001-231200-
YELLOWSTONE NATIONAL PARK

CITY           SKY/WX    TMP DP  RH WIND       PRES   REMARKS
LK YELLOWSTONE NOT AVBL
W YELLOWSTONE  NOT AVBL

$$
WYZ002>013-054>058-071-098>099-231200-
NORTHERN WYOMING

CITY           SKY/WX    TMP DP  RH WIND       PRES   REMARKS
JACKSON        CLOUDY    32  31  96 NW5       30.02S WCI  27
CODY           CLOUDY    36  35  96 CALM      30.04F
GREYBULL       LGT RAIN  41  40  96 NW7       30.03S
WORLAND        LGT RAIN  40  40 100 CALM      30.02S
SHERIDAN       CLOUDY    40  39  97 CALM      30.05S
BUFFALO        LGT RAIN  38  35  89 SE7       30.04F WCI  33
GILLETTE       CLOUDY    40  36  86 NE9       30.04S WCI  34
HULETT         CLOUDY    39  37  93 N7        30.06F WCI  34
NEWCASTLE      CLOUDY    41  39  93 SE8       30.03F

$$
WYZ014>020-022>026-101>103-231200-
CENTRAL WYOMING

CITY           SKY/WX    TMP DP  RH WIND       PRES   REMARKS
BIG PINEY      CLOUDY    33  32  96 CALM      30.01S
PINEDALE       CLOUDY    32  32 100 CALM      30.01S
DUBOIS         CLOUDY    32  32 100 N5        30.00S WCI  27
LANDER           N/A    N/A N/A N/A MISG      29.99S
RIVERTON       RAIN      40  40 100 E6        30.00S VSB 3/4
CASPER         CLOUDY    40  38  93 NE10      30.00F FOG     WCI  33
DOUGLAS        CLOUDY    43  41  93 E10       30.01F FOG

$$
WYZ021-027>030-104>119-231200-
SOUTHERN WYOMING

CITY           SKY/WX    TMP DP  RH WIND       PRES   REMARKS
EVANSTON       CLOUDY    34  31  88 N6        29.97F WCI  29
KEMMERER         N/A     32  32 100 CALM      30.00S
FORT BRIDGER   FAIR      35  35 100 CALM      30.01S FOG
ROCK SPRINGS   CLOUDY    35  33  92 SE7       30.00S WCI  29
DIXON          CLOUDY    41  36  80 NW3       30.00R
RAWLINS        CLOUDY    40  34  79 SW3       29.98R
SARATOGA       CLOUDY    39  39 100 CALM      30.00R
LARAMIE        CLOUDY    42  39  89 SE10      30.01R
CHEYENNE       CLOUDY    41  36  82 N6        30.03R
TORRINGTON     FAIR      43  37  79 NE10      29.99F
PINE BLUFFS    FAIR      43  37  81 MISG      30.01F

$$



USA.gov is the U.S. government's official web portal to all federal, state and local government web resources and services.